Location: Selby
(38.0566°N, 122.2439°W)
Time: 00:05:26
(UTC+00:00)

Okean 2 Rocket - Pass Details

Date: 23 August 2024
Orbit: 613 x 638 km, 82.5° (Epoch: 16 September)

Event Time Altitude Azimuth Distance (km) Brightness Sun altitude
Exits shadow 12:29:23 - 196° (SSW) 2,327 5.6 -12.3°
Reaches altitude 10° 12:30:11 10° 198° (SSW) 2,007 5.3 -12.2°
Maximum altitude 12:34:35 61° 279° (W) 717 3.1 -11.4°
Drops below altitude 10° 12:38:59 10° 360° (N) 2,007 6.0 -10.6°
Sets 12:41:15 0° 4° (N) 2,913 6.9 -10.2°
